When you browse on this site, cookies collect data to enhance your experience and personalize the content and advertising you see.
Visit our Privacy Policy to learn more. By continuing to use the site, you agree to this use of cookies and data.
  • In Czech Republic
  • List of Countries
  • For 7 days
  • Water Temperature
  • Satellite Maps
  • Weather Map
  • Weather Widgets
  • user-avatar
    Login

    Hourly Weather Andover

    Today, 19 December, Wednesday

    Time Temperature Precipitation Wind Pressure Humidity
    00:00 +6°C° 0 mm 4 mps 745 mmHg 92%
    01:00 +6°C° 0.4 mm 4 mps 745 mmHg 92%
    02:00 +6°C° 0.4 mm 4 mps 745 mmHg 92%
    03:00 +6°C° 0.4 mm 5 mps 745 mmHg 91%
    04:00 +6°C° 0.7 mm 5 mps 745 mmHg 90%
    05:00 +6°C° 0.7 mm 5 mps 745 mmHg 88%
    06:00 +6°C° 0.7 mm 5 mps 745 mmHg 87%
    07:00 +6°C° 0.4 mm 4 mps 745 mmHg 87%
    08:00 +6°C° 0.4 mm 4 mps 745 mmHg 87%
    09:00 +6°C° 0.4 mm 4 mps 746 mmHg 87%
    10:00 +7°C° 0.1 mm 5 mps 746 mmHg 84%
    11:00 +7°C° 0.1 mm 5 mps 746 mmHg 82%
    12:00 +8°C° 0.1 mm 5 mps 747 mmHg 79%
    13:00 +8°C° 0 mm 5 mps 746 mmHg 79%
    14:00 +7°C° 0 mm 5 mps 746 mmHg 80%
    15:00 +7°C° 0 mm 5 mps 746 mmHg 81%
    16:00 +7°C° 0.2 mm 5 mps 746 mmHg 82%
    17:00 +5°C° 0.2 mm 6 mps 746 mmHg 83%
    18:00 +5°C° 0.2 mm 6 mps 746 mmHg 85%
    19:00 +5°C° 0.4 mm 6 mps 746 mmHg 85%
    20:00 +5°C° 0.4 mm 6 mps 746 mmHg 85%
    21:00 +5°C° 0.4 mm 6 mps 745 mmHg 85%
    22:00 +5°C° 0.2 mm 6 mps 746 mmHg 85%
    23:00 +5°C° 0.2 mm 6 mps 746 mmHg 85%

    Tomorrow, 20 December, Thursday

    Time Temperature Precipitation Wind Pressure Humidity
    00:00 +5°C° 0.2 mm 6 mps 746 mmHg 85%
    01:00 +5°C° 0.1 mm 6 mps 746 mmHg 85%
    02:00 +5°C° 0.1 mm 6 mps 746 mmHg 86%
    03:00 +5°C° 0.1 mm 6 mps 747 mmHg 86%
    04:00 +5°C° 0.1 mm 6 mps 747 mmHg 86%
    05:00 +5°C° 0.1 mm 6 mps 747 mmHg 87%
    06:00 +5°C° 0.1 mm 6 mps 747 mmHg 87%
    07:00 +5°C° 0.1 mm 6 mps 748 mmHg 87%
    08:00 +5°C° 0.1 mm 6 mps 748 mmHg 87%
    09:00 +5°C° 0.1 mm 6 mps 749 mmHg 87%
    10:00 +7°C° 0.1 mm 6 mps 749 mmHg 84%
    11:00 +6°C° 0.1 mm 7 mps 749 mmHg 81%
    12:00 +8°C° 0.1 mm 7 mps 749 mmHg 78%
    13:00 +8°C° 0.1 mm 7 mps 749 mmHg 78%
    14:00 +8°C° 0.1 mm 7 mps 749 mmHg 79%
    15:00 +8°C° 0.1 mm 7 mps 749 mmHg 79%
    16:00 +7°C° 0 mm 6 mps 749 mmHg 80%
    17:00 +7°C° 0 mm 6 mps 749 mmHg 82%
    18:00 +5°C° 0 mm 6 mps 749 mmHg 83%
    19:00 +6°C° 0 mm 5 mps 748 mmHg 85%
    20:00 +6°C° 0 mm 4 mps 748 mmHg 86%
    21:00 +6°C° 0 mm 4 mps 748 mmHg 88%
    22:00 +7°C° 1.5 mm 4 mps 746 mmHg 91%
    23:00 +8°C° 1.5 mm 4 mps 745 mmHg 94%

    Day after tomorrow, 21 December, Friday

    Time Temperature Precipitation Wind Pressure Humidity
    00:00 +8°C° 1.5 mm 5 mps 744 mmHg 97%
    01:00 +9°C° 0.6 mm 6 mps 743 mmHg 96%
    02:00 +10°C° 0.6 mm 6 mps 742 mmHg 95%
    03:00 +11°C° 0.6 mm 7 mps 741 mmHg 94%
    04:00 +11°C° 0.3 mm 9 mps 741 mmHg 91%
    05:00 +11°C° 0.3 mm 10 mps 741 mmHg 87%
    06:00 +11°C° 0.3 mm 11 mps 741 mmHg 84%
    07:00 +9°C° 0 mm 10 mps 743 mmHg 82%
    08:00 +8°C° 0 mm 10 mps 744 mmHg 80%
    09:00 +7°C° 0 mm 9 mps 745 mmHg 78%
    10:00 +7°C° 0 mm 9 mps 746 mmHg 77%
    11:00 +8°C° 0 mm 9 mps 746 mmHg 76%
    12:00 +8°C° 0 mm 9 mps 747 mmHg 74%
    13:00 +8°C° 0 mm 9 mps 747 mmHg 76%
    14:00 +9°C° 0 mm 8 mps 747 mmHg 77%
    15:00 +9°C° 0 mm 7 mps 748 mmHg 79%
    16:00 +9°C° 0 mm 7 mps 747 mmHg 82%
    17:00 +8°C° 0 mm 7 mps 747 mmHg 85%
    18:00 +8°C° 0 mm 7 mps 747 mmHg 88%
    19:00 +8°C° 0.2 mm 7 mps 747 mmHg 88%
    20:00 +8°C° 0.2 mm 7 mps 746 mmHg 88%
    21:00 +9°C° 0.2 mm 7 mps 745 mmHg 88%
    22:00 +9°C° 1.4 mm 8 mps 745 mmHg 88%
    23:00 +9°C° 1.4 mm 8 mps 745 mmHg 87%

    22 December, Saturday

    Time Temperature Precipitation Wind Pressure Humidity
    00:00 +10°C° 1.4 mm 9 mps 745 mmHg 86%
    01:00 +9°C° 0 mm 8 mps 746 mmHg 86%
    02:00 +8°C° 0 mm 7 mps 747 mmHg 87%
    03:00 +8°C° 0 mm 7 mps 748 mmHg 87%
    04:00 +7°C° 0 mm 6 mps 748 mmHg 86%
    05:00 +7°C° 0 mm 6 mps 749 mmHg 86%
    06:00 +5°C° 0 mm 6 mps 749 mmHg 86%
    07:00 +5°C° 0 mm 6 mps 750 mmHg 85%
    08:00 +5°C° 0 mm 6 mps 751 mmHg 84%
    09:00 +5°C° 0 mm 6 mps 752 mmHg 83%
    10:00 +7°C° 0 mm 6 mps 753 mmHg 81%
    11:00 +7°C° 0 mm 6 mps 754 mmHg 79%
    12:00 +8°C° 0 mm 6 mps 754 mmHg 76%
    13:00 +8°C° 0.1 mm 6 mps 754 mmHg 78%
    14:00 +8°C° 0.1 mm 6 mps 755 mmHg 81%
    15:00 +8°C° 0.1 mm 5 mps 755 mmHg 83%
    16:00 +7°C° 0 mm 5 mps 755 mmHg 85%
    17:00 +7°C° 0 mm 5 mps 756 mmHg 87%
    18:00 +6°C° 0 mm 4 mps 756 mmHg 90%
    19:00 +6°C° 0 mm 4 mps 757 mmHg 90%
    20:00 +5°C° 0 mm 4 mps 757 mmHg 91%
    21:00 +5°C° 0 mm 4 mps 758 mmHg 92%
    22:00 +5°C° 0 mm 3 mps 758 mmHg 92%
    23:00 +5°C° 0 mm 3 mps 758 mmHg 92%

    23 December, Sunday

    Time Temperature Precipitation Wind Pressure Humidity
    00:00 +5°C° 0 mm 3 mps 758 mmHg 92%
    01:00 +4°C° 0 mm 3 mps 759 mmHg 92%
    02:00 +4°C° 0 mm 3 mps 759 mmHg 92%
    03:00 +5°C° 0 mm 2 mps 759 mmHg 93%
    04:00 +5°C° 0 mm 2 mps 759 mmHg 93%
    05:00 +5°C° 0 mm 2 mps 759 mmHg 93%
    06:00 +6°C° 0 mm 1 mps 759 mmHg 93%
    07:00 +6°C° 0 mm 1 mps 759 mmHg 92%
    08:00 +7°C° 0 mm 1 mps 760 mmHg 91%
    09:00 +7°C° 0 mm 1 mps 760 mmHg 91%
    10:00 +6°C° 0 mm 2 mps 760 mmHg 90%
    11:00 +7°C° 0 mm 2 mps 760 mmHg 89%
    12:00 +8°C° 0 mm 2 mps 760 mmHg 88%
    13:00 +8°C° 0.4 mm 2 mps 759 mmHg 90%
    14:00 +8°C° 0.4 mm 3 mps 759 mmHg 92%
    15:00 +7°C° 0.4 mm 3 mps 758 mmHg 94%
    16:00 +7°C° 1.8 mm 4 mps 758 mmHg 95%
    17:00 +7°C° 1.8 mm 4 mps 758 mmHg 95%
    18:00 +7°C° 1.8 mm 5 mps 758 mmHg 96%
    19:00 +7°C° 1.8 mm 5 mps 758 mmHg 96%
    20:00 +7°C° 1.8 mm 5 mps 759 mmHg 96%
    21:00 +7°C° 1.8 mm 5 mps 759 mmHg 96%
    22:00 +7°C° 0.4 mm 5 mps 759 mmHg 96%
    23:00 +7°C° 0.4 mm 4 mps 759 mmHg 96%

    24 December, Monday

    Time Temperature Precipitation Wind Pressure Humidity
    00:00 +8°C° 0.4 mm 4 mps 759 mmHg 96%
    01:00 +8°C° 0.3 mm 4 mps 759 mmHg 96%
    02:00 +8°C° 0.3 mm 4 mps 759 mmHg 97%
    03:00 +10°C° 0.3 mm 3 mps 759 mmHg 97%
    04:00 +10°C° 0.1 mm 3 mps 759 mmHg 97%
    05:00 +10°C° 0.1 mm 3 mps 759 mmHg 96%
    06:00 +10°C° 0.1 mm 3 mps 759 mmHg 96%
    07:00 +10°C° 0 mm 4 mps 759 mmHg 96%
    08:00 +10°C° 0 mm 4 mps 760 mmHg 96%
    09:00 +10°C° 0 mm 4 mps 760 mmHg 96%
    10:00 +11°C° 0 mm 4 mps 760 mmHg 95%
    11:00 +11°C° 0 mm 4 mps 760 mmHg 94%
    12:00 +12°C° 0 mm 4 mps 760 mmHg 93%
    13:00 +12°C° 0 mm 4 mps 760 mmHg 93%
    14:00 +12°C° 0 mm 4 mps 761 mmHg 93%
    15:00 +12°C° 0 mm 4 mps 761 mmHg 93%
    16:00 +11°C° 0 mm 3 mps 761 mmHg 94%
    17:00 +10°C° 0 mm 3 mps 761 mmHg 95%
    18:00 +10°C° 0 mm 2 mps 761 mmHg 96%
    19:00 +9°C° 0 mm 2 mps 761 mmHg 96%
    20:00 +9°C° 0 mm 2 mps 761 mmHg 95%
    21:00 +10°C° 0 mm 1 mps 762 mmHg 95%
    22:00 +10°C° 0 mm 1 mps 761 mmHg 95%
    23:00 +10°C° 0 mm 1 mps 761 mmHg 95%
    Show more